Portada
METAR-TAF:

METAR-TAF

Aeroports :

Albany, Austràlia

latitud: 34-56-36S, longitud: 117-48-32E, altitud: 71 m

Observació

L'informe es va fer fa 23 minuts, a les 14:00 UTC
Vent 13 kt del Est/Nord-Est
Temperatura 19°C
Humitat 78%
Pressió 1014 hPa
Visibilitat 10 km o més

METAR: YABA 071400Z AUTO 07013KT 9999 // NCD 19/15 Q1014

Hora: 22:23 (14:23 UTC)


TAF: manca

Observacions i pronòstics meteorològics de més de 4000 aeroports (METAR i TAF).

Les estacions disponibles són els punts grocs i vermells al mapa.

Posi el ratolí al punt desitjat per veure el nom de l'estació.

Feu clic per veure les observacions i els pronòstics meteorològics.

Per canviar el mapa: feu clic els botons verds amb una creu de color negre per apropar; al botó verd amb un guió per allunyar la imatge; o en les fletxes verdes per a mapes adjacents.


METAR-TAF: